Location: Borotín
(49.5055°N, 14.6142°E)
Time: 11:47:43
(UTC+00:00)

Meteor 2-5 Rocket - Pass Details

Date: 27 May 2022
Orbit: 832 x 912 km, 81.2° (Epoch: 26 June)

Event Time Altitude Azimuth Distance (km) Brightness Sun altitude
Exits shadow 00:50:19 22° 200° (SSW) 1,809 4.8 -15.0°
Maximum altitude 00:54:07 75° 283° (WNW) 902 3.8 -14.7°
Drops below altitude 10° 00:59:47 10° 9° (N) 2,497 7.3 -14.3°
Sets 01:02:13 0° 12° (NNE) 3,427 8.4 -14.1°
